Starlink 11567

operational
NORAD ID: 62909 Int'l Des: 2025-027 Owner: SPXS Country: US Constellation: starlink
LEOCIRCULAR

Über Starlink 11567

Beschreibung wird geladen...

Live-Position

3D-Globus wird geladen...

Nächste Überflüge

Höhenverlauf

Altitude vs Time

uPlot chart will show altitude changes over time

Zweizeiliger Elementsatz

1 62909U 25027C 25257.40708367 .00215657 00000-0 16413-2 0 9991
2 62909 43.0003 330.5796 0002256 284.0965 75.9652 15.70833964 35424
Epoch: 14. Sept. 2025 • Age: 21 hours

Aktueller Status

Höhe 354.6 km
Geschwindigkeit 7.70 km/s
Subsatellitenpunkt 1.56°N, 134.75°W
Startdatum 8. Feb. 2025
Alter 0.5 years
Typ internet

Technische Details

Klassifizierung Payload
Masse 960.00 kg
Trockenmasse 910.00 kg
Gesamtmasse 960.00 kg
Länge 0.30 m
Durchmesser 4.10 m
Spannweite 29.00 m
Form Box + pan
Hersteller SPXS
Bus-Typ Starlink V2MD
Phasenstatus In Orbit
Besitzer/Staat SPXS/US

Große Konstellationen

Loading constellations...